Tracking 33877 objects as of 19-Apr-2026
HD Live streaming from Space Station
objects crossing your sky now

STARLINK-1271

Track STARLINK-1271 now!
10-day predictions
STARLINK-1271 is classified as:


NORAD ID: 45217
Int'l Code: 2020-012AR
Perigee: 479.2 km
Apogee: 481.6 km
Inclination: 53.2 °
Period: 94.1 minutes
Semi major axis: 6851 km
RCS: Unknown
Launch date: February 17, 2020
Source: United States (US)
Launch site: AIR FORCE EASTERN TEST RANGE (AFETR)
Your satellite tracking list
Your tracking list is empty




NASA's NSSDC Master Catalog

Two Line Element Set (TLE):
1 45217U 20012AR  26109.53397796  .00028861  00000-0  96319-3 0  9997
2 45217  53.1585 194.2142 0001746  39.6981 320.4147 15.30851482341416
Source of the keplerian elements: AFSPC